Date String (YYYY-MM-DD hh:mm:ss) UTC,Instrument flags,absolute air pressure of the measurement (hPa),sample flow rate (lpm),inlet stack bypass flow (lpm),air temperature of the measurement (°C),ambient temperature measured by the external sensor (°C),aerosol sample conditioner tube jacket temperature (°C),OPC LED temperature (°C),internal box temperature (°C),relative humidity of the measurement (%),span deviation,mass concentration of particles derived from Lorenz-Mie calculation of OPC scattering (μg/m³),mass concentration of particles derived from Lorenz-Mie calculation of OPC scattering (μg/m³),mass concentration of particles derived from Lorenz-Mie calculation of OPC scattering (μg/m³)
DateTimeUTC,F1_M11,P_M11,Q1_M11,Q2_M11,T1_M11,T2_M11,T3_M11,T4_M11,T5_M11,U1_M11,ZSPAN_M11,X0_M11,X2_M11,X1_M11
2024-04-10 16:00:00,SystemResetWarning,0830.4,5.00,000.00,025.1,024.6,000.0,033.5,027.0,013.2,0000.0,0007.78,0002.78,0001.22
2024-04-10 16:01:00,SystemResetWarning,0830.5,5.00,000.00,025.2,024.6,000.0,033.5,027.0,013.3,0000.0,0007.49,0002.78,0001.26
2024-04-10 16:02:00,SystemResetWarning,0830.5,4.99,000.00,025.2,024.6,000.0,033.5,027.0,013.1,0000.0,0007.64,0002.87,0001.30
2024-04-10 16:03:00,SystemResetWarning,0830.4,5.00,000.00,025.2,024.6,000.0,033.5,027.0,013.0,0000.0,0008.64,0002.86,0001.33
2024-04-10 16:04:00,SystemResetWarning,0830.5,4.99,000.00,025.2,024.6,000.0,033.5,027.0,012.9,0000.0,0008.93,0002.83,0001.33
2024-04-10 16:05:00,SystemResetWarning,0830.5,5.00,000.00,025.2,024.6,000.0,033.5,027.0,012.9,0000.0,0008.95,0002.85,0001.33
2024-04-10 16:06:00,SystemResetWarning,0830.5,5.00,000.00,025.2,024.6,000.0,033.5,027.0,012.5,0000.0,0009.69,0002.88,0001.32
2024-04-10 16:07:00,SystemResetWarning,0830.5,5.00,000.00,025.2,024.7,000.0,033.6,027.0,012.9,0000.0,0009.95,0002.94,0001.33
2024-04-10 16:08:00,SystemResetWarning,0830.6,5.00,000.00,025.2,024.6,000.0,033.6,027.0,012.9,0000.0,0010.11,0002.95,0001.34
2024-04-10 16:09:00,SystemResetWarning,0830.5,5.00,000.00,025.2,024.5,000.0,033.6,026.9,012.7,0000.0,0009.97,0002.88,0001.34
2024-04-10 16:10:00,SystemResetWarning,0830.6,5.00,000.00,025.2,024.5,000.0,033.6,027.0,012.7,0000.0,0009.61,0002.78,0001.34
2024-04-10 16:11:00,SystemResetWarning,0830.5,5.00,000.00,025.2,024.5,000.0,033.6,027.0,012.8,0000.0,0009.72,0002.81,0001.35
2024-04-10 16:12:00,SystemResetWarning,0830.6,5.01,000.00,025.2,024.5,000.0,033.6,027.0,012.4,0000.0,0010.21,0002.89,0001.36
2024-04-10 16:13:00,SystemResetWarning,0830.6,5.01,000.00,025.2,024.5,000.0,033.6,027.0,012.8,0000.0,0010.22,0002.84,0001.36
2024-04-10 16:14:00,SystemResetWarning,0830.7,4.99,000.00,025.2,024.6,000.0,033.6,027.0,012.4,0000.0,0009.25,0002.81,0001.35
2024-04-10 16:15:00,SystemResetWarning,0830.7,4.99,000.00,025.2,024.6,000.0,033.6,027.0,012.1,0000.0,0009.14,0002.78,0001.32
2024-04-10 16:16:00,SystemResetWarning,0830.7,5.00,000.00,025.2,024.5,000.0,033.6,027.0,012.4,0000.0,0009.18,0002.70,0001.31
2024-04-10 16:17:00,SystemResetWarning,0830.7,5.00,000.00,025.2,024.5,000.0,033.6,027.0,012.2,0000.0,0008.58,0002.70,0001.30
2024-04-10 16:18:00,SystemResetWarning,0830.7,5.00,000.00,025.2,024.5,000.0,033.6,027.0,012.8,0000.0,0008.59,0002.73,0001.31
2024-04-10 16:19:00,SystemResetWarning,0830.6,4.99,000.00,025.3,024.6,000.0,033.6,027.0,013.0,0000.0,0009.59,0002.76,0001.29
2024-04-10 16:20:00,SystemResetWarning,0830.6,5.00,000.00,025.3,024.6,000.0,033.7,027.0,012.9,0000.0,0009.91,0002.81,0001.29
2024-04-10 16:21:00,SystemResetWarning,0830.7,5.00,000.00,025.3,024.6,000.0,033.7,027.1,012.2,0000.0,0010.00,0002.85,0001.30
2024-04-10 16:22:00,SystemResetWarning,0830.7,5.02,000.00,025.3,024.6,000.0,033.7,027.1,012.0,0000.0,0009.78,0002.88,0001.30
2024-04-10 16:23:00,SystemResetWarning,0830.7,5.00,000.00,025.3,024.6,000.0,033.7,027.1,012.1,0000.0,0009.51,0002.87,0001.30
2024-04-10 16:24:00,SystemResetWarning,0830.7,4.99,000.00,025.3,024.6,000.0,033.7,027.1,012.7,0000.0,0010.63,0002.98,0001.29
2024-04-10 16:25:00,SystemResetWarning,0830.7,4.99,000.00,025.3,024.6,000.0,033.7,027.1,012.8,0000.0,0011.05,0003.01,0001.31
2024-04-10 16:26:00,SystemResetWarning,0830.7,5.00,000.00,025.3,024.6,000.0,033.7,027.1,012.7,0000.0,0010.92,0003.06,0001.35
2024-04-10 16:27:00,SystemResetWarning,0830.7,5.02,000.00,025.3,024.6,000.0,033.7,027.1,012.7,0000.0,0011.03,0003.16,0001.41
2024-04-10 16:28:00,SystemResetWarning,0830.8,5.00,000.00,025.3,024.6,000.0,033.7,027.1,012.9,0000.0,0011.55,0003.24,0001.47
2024-04-10 16:29:00,SystemResetWarning,0830.7,4.99,000.00,025.3,024.6,000.0,033.7,027.1,012.8,0000.0,0011.36,0003.25,0001.53
2024-04-10 16:30:00,SystemResetWarning,0830.8,5.00,000.00,025.3,024.6,000.0,033.7,027.1,012.4,0000.0,0010.90,0003.28,0001.60
2024-04-10 16:31:00,SystemResetWarning,0830.7,5.01,000.00,025.3,024.6,000.0,033.7,027.1,012.0,0000.0,0011.15,0003.36,0001.67
2024-04-10 16:32:00,SystemResetWarning,0830.7,5.01,000.00,025.3,024.7,000.0,033.7,027.2,012.5,0000.0,0011.82,0003.42,0001.73
2024-04-10 16:33:00,SystemResetWarning,0830.7,5.00,000.00,025.3,024.7,000.0,033.7,027.2,012.1,0000.0,0012.93,0003.47,0001.80
2024-04-10 16:34:00,SystemResetWarning,0830.7,4.99,000.00,025.3,024.7,000.0,033.7,027.2,012.4,0000.0,0013.59,0003.53,0001.84
2024-04-10 16:35:00,SystemResetWarning,0830.8,4.99,000.00,025.4,024.7,000.0,033.7,027.2,013.1,0000.0,0012.68,0003.53,0001.90
2024-04-10 16:36:00,SystemResetWarning,0830.8,5.02,000.00,025.4,024.7,000.0,033.7,027.2,012.9,0000.0,0012.56,0003.66,0002.00
2024-04-10 16:37:00,SystemResetWarning,0830.8,5.01,000.00,025.4,024.7,000.0,033.7,027.2,013.2,0000.0,0013.46,0003.80,0002.12
2024-04-10 16:38:00,SystemResetWarning,0830.8,4.99,000.00,025.4,024.7,000.0,033.8,027.2,013.4,0000.0,0015.31,0003.92,0002.23
2024-04-10 16:39:00,SystemResetWarning,0830.8,4.99,000.00,025.4,024.7,000.0,033.8,027.1,012.9,0000.0,0015.79,0004.08,0002.34
2024-04-10 16:40:00,SystemResetWarning,0830.8,5.00,000.00,025.4,024.6,000.0,033.8,027.1,013.3,0000.0,0016.45,0004.20,0002.43
2024-04-10 16:41:00,SystemResetWarning,0830.9,5.01,000.00,025.4,024.7,000.0,033.8,027.1,013.2,0000.0,0017.34,0004.34,0002.52
2024-04-10 16:42:00,SystemResetWarning,0830.9,5.00,000.00,025.4,024.7,000.0,033.8,027.2,012.8,0000.0,0017.38,0004.44,0002.61
2024-04-10 16:43:00,SystemResetWarning,0830.9,5.00,000.00,025.4,024.7,000.0,033.8,027.2,012.8,0000.0,0018.40,0004.53,0002.73
2024-04-10 16:44:00,SystemResetWarning,0831.0,5.00,000.00,025.4,024.7,000.0,033.8,027.2,012.7,0000.0,0018.71,0004.60,0002.80
2024-04-10 16:45:00,SystemResetWarning,0831.0,4.99,000.00,025.4,024.7,000.0,033.8,027.2,012.7,0000.0,0019.49,0004.70,0002.86
2024-04-10 16:46:00,SystemResetWarning,0831.0,4.99,000.00,025.4,024.7,000.0,033.8,027.2,012.5,0000.0,0019.81,0004.77,0002.92
2024-04-10 16:47:00,SystemResetWarning,0831.0,5.01,000.00,025.4,024.7,000.0,033.8,027.2,012.3,0000.0,0020.69,0004.72,0002.92
2024-04-10 16:48:00,SystemResetWarning,0831.0,5.01,000.00,025.4,024.7,000.0,033.8,027.2,012.4,0000.0,0019.98,0004.67,0002.90
2024-04-10 16:49:00,SystemResetWarning,0831.0,5.00,000.00,025.4,024.7,000.0,033.8,027.2,012.5,0000.0,0018.17,0004.61,0002.87
2024-04-10 16:50:00,SystemResetWarning,0830.9,4.99,000.00,025.4,024.7,000.0,033.8,027.2,012.4,0000.0,0017.60,0004.50,0002.84
2024-04-10 16:51:00,SystemResetWarning,0830.9,5.00,000.00,025.4,024.7,000.0,033.8,027.2,012.5,0000.0,0018.44,0004.46,0002.79
2024-04-10 16:52:00,SystemResetWarning,0831.0,4.99,000.00,025.4,024.7,000.0,033.8,027.2,012.8,0000.0,0018.35,0004.38,0002.74
2024-04-10 16:53:00,SystemResetWarning,0831.0,5.00,000.00,025.4,024.7,000.0,033.8,027.2,013.0,0000.0,0017.79,0004.29,0002.69
2024-04-10 16:54:00,SystemResetWarning,0831.0,5.01,000.00,025.4,024.7,000.0,033.8,027.2,013.0,0000.0,0017.84,0004.25,0002.64
2024-04-10 16:55:00,SystemResetWarning,0831.1,5.01,000.00,025.4,024.7,000.0,033.8,027.2,012.9,0000.0,0016.63,0004.25,0002.63
2024-04-10 16:56:00,SystemResetWarning,0831.1,5.00,000.00,025.4,024.7,000.0,033.8,027.2,012.9,0000.0,0015.98,0004.19,0002.64
2024-04-10 16:57:00,SystemResetWarning,0831.1,4.99,000.00,025.4,024.7,000.0,033.8,027.2,012.7,0000.0,0016.64,0004.18,0002.63
2024-04-10 16:58:00,SystemResetWarning,0831.2,4.98,000.00,025.4,024.7,000.0,033.8,027.2,013.0,0000.0,0016.24,0004.18,0002.62
2024-04-10 16:59:00,SystemResetWarning,0831.1,5.01,000.00,025.4,024.7,000.0,033.8,027.2,013.1,0000.0,0016.08,0004.19,0002.61
